Time,TemperatureF,DewpointF,PressureIn,WindDirection,WindDirectionDegrees,WindSpeedMPH,WindSpeedGustMPH,Humidity,HourlyPrecipIn,Conditions,Clouds,dailyrainin,SoftwareType,DateUTC
2013-02-01 00:03:00,32.0,16.0,29.67,West,280,8.0,16.0,50,-99.99,,,-99.99,,2013-02-01 05:03:00,
2013-02-01 00:12:00,32.0,16.0,29.68,West,280,5.0,-999.0,50,-99.99,,,-99.99,,2013-02-01 05:12:00,
2013-02-01 00:22:00,32.0,16.0,29.68,West,280,6.0,-999.0,50,-99.99,,,-99.99,,2013-02-01 05:22:00,
2013-02-01 00:32:00,30.0,16.0,29.68,West,270,3.0,-999.0,54,-99.99,,,-99.99,,2013-02-01 05:32:00,
2013-02-01 00:42:00,32.0,14.0,29.69,West,280,13.0,21.0,46,-99.99,,,-99.99,,2013-02-01 05:42:00,
2013-02-01 00:52:00,32.0,12.0,29.68,WNW,290,10.0,20.0,43,-99.99,,,-99.99,,2013-02-01 05:52:00,
2013-02-01 01:02:00,32.0,12.0,29.68,WNW,290,10.0,20.0,43,-99.99,,,-99.99,,2013-02-01 06:02:00,
2013-02-01 01:11:00,32.0,12.0,29.69,West,270,6.0,-999.0,43,-99.99,,,-99.99,,2013-02-01 06:11:00,
2013-02-01 01:22:00,32.0,10.0,29.69,West,280,9.0,18.0,40,-99.99,,,-99.99,,2013-02-01 06:22:00,
2013-02-01 01:32:00,32.0,10.0,29.70,West,270,9.0,-999.0,40,-99.99,,,-99.99,,2013-02-01 06:32:00,
2013-02-01 01:42:00,32.0,10.0,29.70,WNW,290,8.0,-999.0,40,-99.99,,,-99.99,,2013-02-01 06:42:00,
2013-02-01 01:52:00,32.0,10.0,29.71,West,270,6.0,-999.0,40,-99.99,,,-99.99,,2013-02-01 06:52:00,
2013-02-01 02:02:00,32.0,10.0,29.71,West,270,6.0,-999.0,40,-99.99,,,-99.99,,2013-02-01 07:02:00,
2013-02-01 02:12:00,32.0,10.0,29.71,West,270,7.0,-999.0,40,-99.99,,,-99.99,,2013-02-01 07:12:00,
2013-02-01 02:22:00,32.0,10.0,29.71,West,270,7.0,-999.0,40,-99.99,,,-99.99,,2013-02-01 07:22:00,
2013-02-01 02:32:00,32.0,10.0,29.71,West,280,13.0,20.0,40,-99.99,,,-99.99,,2013-02-01 07:32:00,
2013-02-01 02:42:00,32.0,10.0,29.71,West,270,8.0,20.0,40,-99.99,,,-99.99,,2013-02-01 07:42:00,
2013-02-01 02:51:00,30.0,10.0,29.71,West,280,5.0,-999.0,43,-99.99,,,-99.99,,2013-02-01 07:51:00,
2013-02-01 03:01:00,30.0,10.0,29.71,West,280,5.0,-999.0,43,-99.99,,,-99.99,,2013-02-01 08:01:00,
2013-02-01 03:11:00,30.0,10.0,29.71,WNW,290,6.0,-999.0,43,-99.99,,,-99.99,,2013-02-01 08:11:00,
2013-02-01 03:21:00,30.0,12.0,29.71,West,280,5.0,-999.0,46,-99.99,,,-99.99,,2013-02-01 08:21:00,
2013-02-01 03:32:00,30.0,12.0,29.71,West,270,6.0,-999.0,46,-99.99,,,-99.99,,2013-02-01 08:32:00,
2013-02-01 03:42:00,30.0,12.0,29.71,West,260,5.0,-999.0,46,-99.99,,,-99.99,,2013-02-01 08:42:00,
2013-02-01 03:52:00,30.0,12.0,29.72,West,270,6.0,-999.0,46,-99.99,,,-99.99,,2013-02-01 08:52:00,
2013-02-01 04:02:00,30.0,12.0,29.72,West,270,6.0,-999.0,46,-99.99,,,-99.99,,2013-02-01 09:02:00,
2013-02-01 04:11:00,30.0,12.0,29.72,WNW,290,3.0,-999.0,46,-99.99,,,-99.99,,2013-02-01 09:11:00,
2013-02-01 04:21:00,30.0,12.0,29.72,NW,320,5.0,-999.0,46,-99.99,,,-99.99,,2013-02-01 09:21:00,
2013-02-01 04:32:00,30.0,18.0,29.73,North,360,9.0,18.0,59,-99.99,,,-99.99,,2013-02-01 09:32:00,
2013-02-01 04:42:00,30.0,19.0,29.73,North,350,8.0,17.0,63,-99.99,,,-99.99,,2013-02-01 09:42:00,
2013-02-01 04:51:00,28.0,21.0,29.74,NNW,330,13.0,18.0,74,-99.99,,,-99.99,,2013-02-01 09:51:00,
2013-02-01 05:01:00,28.0,21.0,29.74,NNW,330,13.0,18.0,74,-99.99,,,-99.99,,2013-02-01 10:01:00,
2013-02-01 05:11:00,28.0,21.0,29.74,North,0,0.0,-999.0,74,-99.99,,,-99.99,,2013-02-01 10:11:00,
2013-02-01 05:21:00,28.0,19.0,29.74,NW,310,8.0,-999.0,68,-99.99,,,-99.99,,2013-02-01 10:21:00,
2013-02-01 05:32:00,28.0,18.0,29.74,WNW,290,8.0,-999.0,63,-99.99,,,-99.99,,2013-02-01 10:32:00,
2013-02-01 05:42:00,28.0,18.0,29.74,WNW,300,5.0,-999.0,63,-99.99,,,-99.99,,2013-02-01 10:42:00,
2013-02-01 05:52:00,28.0,18.0,29.75,West,280,5.0,-999.0,63,-99.99,,,-99.99,,2013-02-01 10:52:00,
2013-02-01 06:02:00,28.0,18.0,29.75,West,280,5.0,-999.0,63,-99.99,,,-99.99,,2013-02-01 11:02:00,
2013-02-01 06:11:00,28.0,16.0,29.76,West,280,8.0,-999.0,58,-99.99,,,-99.99,,2013-02-01 11:11:00,
2013-02-01 06:22:00,28.0,14.0,29.76,West,260,6.0,-999.0,54,-99.99,,,-99.99,,2013-02-01 11:22:00,
2013-02-01 06:32:00,28.0,14.0,29.77,West,260,7.0,-999.0,54,-99.99,,,-99.99,,2013-02-01 11:32:00,
2013-02-01 06:42:00,28.0,14.0,29.77,WSW,240,5.0,-999.0,54,-99.99,,,-99.99,,2013-02-01 11:42:00,
2013-02-01 06:53:00,28.0,14.0,29.78,SW,230,5.0,-999.0,54,-99.99,,,-99.99,,2013-02-01 11:53:00,
2013-02-01 07:03:00,28.0,14.0,29.78,SW,230,5.0,-999.0,54,-99.99,,,-99.99,,2013-02-01 12:03:00,
2013-02-01 07:12:00,28.0,14.0,29.79,WSW,240,3.0,-999.0,54,-99.99,,,-99.99,,2013-02-01 12:12:00,
2013-02-01 07:22:00,28.0,14.0,29.80,North,0,0.0,-999.0,54,-99.99,,,-99.99,,2013-02-01 12:22:00,
2013-02-01 07:32:00,28.0,12.0,29.80,North,0,0.0,-999.0,50,-99.99,,,-99.99,,2013-02-01 12:32:00,
2013-02-01 07:42:00,28.0,12.0,29.81,North,0,0.0,-999.0,50,-99.99,,,-99.99,,2013-02-01 12:42:00,
2013-02-01 07:52:00,28.0,12.0,29.81,North,0,0.0,-999.0,50,-99.99,,,-99.99,,2013-02-01 12:52:00,
2013-02-01 08:02:00,28.0,12.0,29.81,North,0,0.0,-999.0,50,-99.99,,,-99.99,,2013-02-01 13:02:00,
2013-02-01 08:11:00,28.0,12.0,29.82,West,260,5.0,-999.0,50,-99.99,,,-99.99,,2013-02-01 13:11:00,
2013-02-01 08:22:00,28.0,12.0,29.83,North,0,0.0,-999.0,50,-99.99,,,-99.99,,2013-02-01 13:22:00,
2013-02-01 08:33:00,28.0,10.0,29.84,West,280,6.0,-999.0,46,-99.99,,,-99.99,,2013-02-01 13:33:00,
2013-02-01 08:42:00,30.0,10.0,29.84,West,270,5.0,-999.0,43,-99.99,,,-99.99,,2013-02-01 13:42:00,
2013-02-01 08:52:00,30.0,10.0,29.84,West,280,7.0,-999.0,43,-99.99,,,-99.99,,2013-02-01 13:52:00,
2013-02-01 09:03:00,30.0,10.0,29.84,West,280,7.0,-999.0,43,-99.99,,,-99.99,,2013-02-01 14:03:00,
2013-02-01 09:11:00,30.0,10.0,29.84,WNW,300,7.0,-999.0,43,-99.99,,,-99.99,,2013-02-01 14:11:00,
2013-02-01 09:22:00,32.0,10.0,29.85,West,280,12.0,16.0,40,-99.99,,,-99.99,,2013-02-01 14:22:00,
2013-02-01 09:32:00,32.0,10.0,29.85,WNW,300,8.0,18.0,40,-99.99,,,-99.99,,2013-02-01 14:32:00,
2013-02-01 09:42:00,32.0,10.0,29.85,West,280,13.0,21.0,40,-99.99,,,-99.99,,2013-02-01 14:42:00,
2013-02-01 09:52:00,32.0,10.0,29.85,West,270,14.0,17.0,40,-99.99,,,-99.99,,2013-02-01 14:52:00,
2013-02-01 10:02:00,32.0,10.0,29.85,West,270,14.0,17.0,40,-99.99,,,-99.99,,2013-02-01 15:02:00,
2013-02-01 10:12:00,32.0,12.0,29.85,NW,310,7.0,17.0,43,-99.99,,,-99.99,,2013-02-01 15:12:00,
2013-02-01 10:22:00,34.0,12.0,29.86,NNW,330,13.0,21.0,40,-99.99,,,-99.99,,2013-02-01 15:22:00,
2013-02-01 10:33:00,32.0,12.0,29.86,NW,310,12.0,21.0,43,-99.99,,,-99.99,,2013-02-01 15:33:00,
2013-02-01 10:42:00,32.0,12.0,29.86,NW,320,7.0,16.0,43,-99.99,,,-99.99,,2013-02-01 15:42:00,
2013-02-01 10:52:00,32.0,14.0,29.86,WNW,300,12.0,18.0,46,-99.99,,,-99.99,,2013-02-01 15:52:00,
2013-02-01 11:03:00,32.0,14.0,29.86,WNW,300,12.0,18.0,46,-99.99,,,-99.99,,2013-02-01 16:03:00,
2013-02-01 11:11:00,32.0,14.0,29.87,WNW,300,14.0,23.0,46,-99.99,,,-99.99,,2013-02-01 16:11:00,
2013-02-01 11:22:00,34.0,14.0,29.87,WNW,300,12.0,21.0,43,-99.99,,,-99.99,,2013-02-01 16:22:00,
2013-02-01 11:33:00,32.0,14.0,29.87,NW,310,10.0,23.0,46,-99.99,,,-99.99,,2013-02-01 16:33:00,
2013-02-01 11:43:00,32.0,12.0,29.87,NW,310,15.0,21.0,43,-99.99,,,-99.99,,2013-02-01 16:43:00,
2013-02-01 11:52:00,34.0,14.0,29.86,WNW,290,13.0,21.0,43,-99.99,,,-99.99,,2013-02-01 16:52:00,
2013-02-01 12:03:00,34.0,14.0,29.86,WNW,290,13.0,21.0,43,-99.99,,,-99.99,,2013-02-01 17:03:00,
2013-02-01 12:12:00,34.0,14.0,29.86,NNW,340,9.0,17.0,43,-99.99,,,-99.99,,2013-02-01 17:12:00,
2013-02-01 12:22:00,32.0,10.0,29.86,NNW,340,7.0,21.0,40,-99.99,,,-99.99,,2013-02-01 17:22:00,
2013-02-01 12:32:00,32.0,10.0,29.86,WNW,300,6.0,20.0,40,-99.99,,,-99.99,,2013-02-01 17:32:00,
2013-02-01 12:42:00,34.0,12.0,29.85,WNW,290,10.0,18.0,40,-99.99,,,-99.99,,2013-02-01 17:42:00,
2013-02-01 12:52:00,32.0,10.0,29.86,NNW,330,12.0,20.0,40,-99.99,,,-99.99,,2013-02-01 17:52:00,
2013-02-01 13:03:00,32.0,10.0,29.86,NNW,330,12.0,20.0,40,-99.99,,,-99.99,,2013-02-01 18:03:00,
2013-02-01 13:12:00,30.0,18.0,29.87,North,360,12.0,22.0,59,-99.99,,,-99.99,,2013-02-01 18:12:00,
2013-02-01 13:22:00,28.0,18.0,29.87,NNW,340,10.0,21.0,63,-99.99,,,-99.99,,2013-02-01 18:22:00,
2013-02-01 13:32:00,30.0,18.0,29.87,NNW,330,8.0,18.0,59,-99.99,,,-99.99,,2013-02-01 18:32:00,
2013-02-01 13:42:00,30.0,16.0,29.88,NW,320,9.0,20.0,54,-99.99,,,-99.99,,2013-02-01 18:42:00,
2013-02-01 13:52:00,30.0,16.0,29.88,NNW,340,10.0,21.0,54,-99.99,,,-99.99,,2013-02-01 18:52:00,
2013-02-01 14:03:00,30.0,16.0,29.88,NNW,340,10.0,21.0,54,-99.99,,,-99.99,,2013-02-01 19:03:00,
2013-02-01 14:12:00,34.0,12.0,29.88,North,350,16.0,21.0,40,-99.99,,,-99.99,,2013-02-01 19:12:00,
2013-02-01 14:21:00,32.0,10.0,29.89,NNW,330,16.0,24.0,40,-99.99,,,-99.99,,2013-02-01 19:21:00,
2013-02-01 14:32:00,30.0,9.0,29.89,NW,320,14.0,24.0,39,-99.99,,,-99.99,,2013-02-01 19:32:00,
2013-02-01 14:42:00,30.0,9.0,29.89,NW,310,14.0,24.0,39,-99.99,,,-99.99,,2013-02-01 19:42:00,
2013-02-01 14:51:00,32.0,10.0,29.90,North,360,20.0,27.0,40,-99.99,,,-99.99,,2013-02-01 19:51:00,
2013-02-01 15:02:00,32.0,10.0,29.90,North,360,20.0,27.0,40,-99.99,,,-99.99,,2013-02-01 20:02:00,
2013-02-01 15:11:00,30.0,10.0,29.91,NNW,330,13.0,22.0,43,-99.99,,,-99.99,,2013-02-01 20:11:00,
2013-02-01 15:21:00,30.0,9.0,29.92,NW,320,10.0,23.0,39,-99.99,,,-99.99,,2013-02-01 20:21:00,
2013-02-01 15:32:00,32.0,9.0,29.92,NW,320,9.0,18.0,36,-99.99,,,-99.99,,2013-02-01 20:32:00,
2013-02-01 15:42:00,32.0,9.0,29.93,NNW,330,16.0,22.0,36,-99.99,,,-99.99,,2013-02-01 20:42:00,
2013-02-01 15:52:00,30.0,9.0,29.95,NNW,340,10.0,28.0,39,-99.99,,,-99.99,,2013-02-01 20:52:00,
2013-02-01 16:02:00,30.0,9.0,29.95,NNW,340,10.0,28.0,39,-99.99,,,-99.99,,2013-02-01 21:02:00,
2013-02-01 16:12:00,30.0,9.0,29.96,NNW,330,10.0,25.0,39,-99.99,,,-99.99,,2013-02-01 21:12:00,
2013-02-01 16:21:00,28.0,9.0,29.97,NW,320,12.0,22.0,42,-99.99,,,-99.99,,2013-02-01 21:21:00,
2013-02-01 16:32:00,28.0,9.0,29.99,North,350,10.0,23.0,42,-99.99,,,-99.99,,2013-02-01 21:32:00,
2013-02-01 16:42:00,28.0,9.0,29.99,NNW,340,14.0,21.0,42,-99.99,,,-99.99,,2013-02-01 21:42:00,
2013-02-01 16:52:00,28.0,9.0,30.00,NNW,340,10.0,21.0,42,-99.99,,,-99.99,,2013-02-01 21:52:00,
2013-02-01 17:02:00,28.0,9.0,30.00,NNW,340,10.0,21.0,42,-99.99,,,-99.99,,2013-02-01 22:02:00,
2013-02-01 17:11:00,28.0,9.0,30.01,North,350,9.0,21.0,42,-99.99,,,-99.99,,2013-02-01 22:11:00,
2013-02-01 17:21:00,27.0,9.0,30.02,North,350,9.0,17.0,46,-99.99,,,-99.99,,2013-02-01 22:21:00,
2013-02-01 17:32:00,27.0,9.0,30.03,NNW,340,7.0,16.0,46,-99.99,,,-99.99,,2013-02-01 22:32:00,
2013-02-01 17:42:00,27.0,9.0,30.03,NNW,330,10.0,16.0,46,-99.99,,,-99.99,,2013-02-01 22:42:00,
2013-02-01 17:51:00,27.0,9.0,30.04,NNW,330,6.0,-999.0,46,-99.99,,,-99.99,,2013-02-01 22:51:00,
2013-02-01 18:02:00,27.0,9.0,30.04,NNW,330,6.0,-999.0,46,-99.99,,,-99.99,,2013-02-01 23:02:00,
2013-02-01 18:11:00,27.0,9.0,30.05,NNW,330,7.0,-999.0,46,-99.99,,,-99.99,,2013-02-01 23:11:00,
2013-02-01 18:21:00,27.0,9.0,30.06,NNW,330,6.0,-999.0,46,-99.99,,,-99.99,,2013-02-01 23:21:00,
2013-02-01 18:32:00,27.0,9.0,30.07,NNW,330,8.0,16.0,46,-99.99,,,-99.99,,2013-02-01 23:32:00,
2013-02-01 18:42:00,27.0,9.0,30.07,NW,320,7.0,16.0,46,-99.99,,,-99.99,,2013-02-01 23:42:00,
2013-02-01 18:52:00,27.0,9.0,30.08,NNW,340,5.0,-999.0,46,-99.99,,,-99.99,,2013-02-01 23:52:00,
2013-02-01 19:02:00,27.0,9.0,30.08,NNW,340,5.0,-999.0,46,-99.99,,,-99.99,,2013-02-02 00:02:00,
2013-02-01 19:11:00,27.0,9.0,30.09,NNW,340,6.0,-999.0,46,-99.99,,,-99.99,,2013-02-02 00:11:00,
2013-02-01 19:21:00,27.0,10.0,30.09,NNW,330,3.0,-999.0,49,-99.99,,,-99.99,,2013-02-02 00:21:00,
2013-02-01 19:32:00,27.0,10.0,30.10,North,350,6.0,-999.0,49,-99.99,,,-99.99,,2013-02-02 00:32:00,
2013-02-01 19:42:00,27.0,10.0,30.10,North,0,0.0,-999.0,49,-99.99,,,-99.99,,2013-02-02 00:42:00,
2013-02-01 19:52:00,27.0,10.0,30.10,North,0,0.0,-999.0,49,-99.99,,,-99.99,,2013-02-02 00:52:00,
2013-02-01 20:02:00,27.0,10.0,30.10,North,0,0.0,-999.0,49,-99.99,,,-99.99,,2013-02-02 01:02:00,
2013-02-01 20:11:00,27.0,10.0,30.10,North,0,0.0,-999.0,49,-99.99,,,-99.99,,2013-02-02 01:11:00,
2013-02-01 20:21:00,27.0,10.0,30.11,NNW,340,5.0,-999.0,49,-99.99,,,-99.99,,2013-02-02 01:21:00,
2013-02-01 20:32:00,25.0,10.0,30.11,West,280,3.0,-999.0,53,-99.99,,,-99.99,,2013-02-02 01:32:00,
2013-02-01 20:42:00,25.0,10.0,30.12,WNW,300,3.0,-999.0,53,-99.99,,,-99.99,,2013-02-02 01:42:00,
2013-02-01 20:52:00,25.0,12.0,30.12,North,0,0.0,-999.0,58,-99.99,,,-99.99,,2013-02-02 01:52:00,
2013-02-01 21:01:00,25.0,12.0,30.12,North,0,0.0,-999.0,58,-99.99,,,-99.99,,2013-02-02 02:01:00,
2013-02-01 21:11:00,25.0,12.0,30.12,North,0,0.0,-999.0,58,-99.99,,,-99.99,,2013-02-02 02:11:00,
2013-02-01 21:22:00,25.0,12.0,30.13,WNW,300,5.0,-999.0,58,-99.99,,,-99.99,,2013-02-02 02:22:00,
2013-02-01 21:32:00,25.0,12.0,30.13,North,0,0.0,-999.0,58,-99.99,,,-99.99,,2013-02-02 02:32:00,
2013-02-01 21:42:00,25.0,12.0,30.13,North,0,0.0,-999.0,58,-99.99,,,-99.99,,2013-02-02 02:42:00,
2013-02-01 21:52:00,25.0,10.0,30.14,WNW,300,5.0,-999.0,53,-99.99,,,-99.99,,2013-02-02 02:52:00,
2013-02-01 22:02:00,25.0,10.0,30.14,WNW,300,5.0,-999.0,53,-99.99,,,-99.99,,2013-02-02 03:02:00,
2013-02-01 22:11:00,25.0,10.0,30.15,NW,310,5.0,-999.0,53,-99.99,,,-99.99,,2013-02-02 03:11:00,
2013-02-01 22:22:00,25.0,10.0,30.15,NW,310,3.0,-999.0,53,-99.99,,,-99.99,,2013-02-02 03:22:00,
2013-02-01 22:32:00,25.0,10.0,30.15,NNW,330,6.0,-999.0,53,-99.99,,,-99.99,,2013-02-02 03:32:00,
2013-02-01 22:42:00,25.0,10.0,30.15,North,0,0.0,-999.0,53,-99.99,,,-99.99,,2013-02-02 03:42:00,
2013-02-01 22:52:00,25.0,10.0,30.15,West,270,3.0,-999.0,53,-99.99,,,-99.99,,2013-02-02 03:52:00,
2013-02-01 23:02:00,25.0,10.0,30.15,West,270,3.0,-999.0,53,-99.99,,,-99.99,,2013-02-02 04:02:00,
2013-02-01 23:11:00,25.0,10.0,30.16,WNW,300,5.0,-999.0,53,-99.99,,,-99.99,,2013-02-02 04:11:00,
2013-02-01 23:21:00,25.0,10.0,30.16,WNW,300,5.0,-999.0,53,-99.99,,,-99.99,,2013-02-02 04:21:00,
2013-02-01 23:32:00,25.0,10.0,30.17,West,270,3.0,-999.0,53,-99.99,,,-99.99,,2013-02-02 04:32:00,
2013-02-01 23:42:00,25.0,10.0,30.17,NW,320,6.0,17.0,53,-99.99,,,-99.99,,2013-02-02 04:42:00,
2013-02-01 23:52:00,25.0,10.0,30.18,NNW,330,5.0,-999.0,53,-99.99,,,-99.99,,2013-02-02 04:52:00,